Hourly Data Report for June 27, 2020

BORDEN AWOS
ONTARIO
Current Station Operator: DND

44°16'20.000" N
79°54'42.000" W
222.50 m
611B002
71534
YBN

Download Data

Hourly Data (June 2020)
Hourly Data Report for June 27, 2020
TIME
LST
Temp Definition
°C
Dew Point Definition
°C
Rel Hum Definition
%
Precip. Amount Definition
mm

Wind Dir Definition
10's deg

Wind Spd Definition
km/h
Visibility Definition
km
Stn Press Definition
kPa
Hmdx Definition


Wind Chill Definition


Weather Definition


00:00 18.1 14.0 77   22 7 14.5 98.18     LegendNANA
01:00 18.1 14.1 78   18 7 14.5 98.13     LegendNANA
02:00 18.4 14.3 77   16 9 14.5 98.07     LegendNANA
03:00 18.7 14.9 79   15 6 14.5 98.03     LegendNANA
04:00 19.4 15.3 77   20 13 14.5 97.95     LegendNANA
05:00 20.2 16.2 78   15 6 14.5 97.94 25   LegendNANA
06:00 20.3 17.2 82   21 9 14.5 97.93 26   LegendNANA
07:00 21.3 18.1 82   24 6 14.5 97.92 27   LegendNANA
08:00 22.9 18.6 77   26 11 14.5 97.89 29   LegendNANA
09:00 24.9 18.8 69   27 20 14.5 97.90 32   LegendNANA
10:00 25.8 18.6 65   28 19 14.5 97.90 32   LegendNANA
11:00 25.2 18.1 65   27 11 14.5 97.91 31   LegendNANA
12:00 26.3 18.6 63   26 13 14.5 97.94 33   LegendNANA
13:00 27.5 18.3 57   28 19 14.5 97.95 34   LegendNANA
14:00 26.5 17.6 58   27 26 14.5 97.92 32   LegendNANA
15:00 27.5 17.6 55   29 28 14.5 97.87 33   LegendNANA
16:00 26.7 17.7 58   28 15 14.5 97.88 32   LegendNANA
17:00 26.5 17.3 57   28 20 14.5 97.88 32   LegendNANA
18:00 25.3 18.5 66   35 9 14.5 97.91 32   LegendNANA
19:00 22.6 18.3 77   33 13 14.5 97.94 29   LegendNANA
20:00 20.5 19.0 91     0 14.5 97.95 27   LegendNANA
21:00 19.9 18.9 94     0 12.9 98.02     LegendNANA
22:00 17.8 17.5 98     0 8.0 98.03     LegendNANA
23:00 17.2 16.5 96   19 6 6.4 97.99     LegendNANA

Notes on Data Quality.

Legend

  • E = Estimated
  • M = Missing
  • NA = Not Available*
  • [empty] = Indicates an unobserved value
Date modified: